Regional Weather Roundup
Issued by NWS Charleston, WV

Home | Current Version | Previous Version | Text Only | Print | Product List | Glossary Off
Versions: 1 2 3 4 5 6 7 8 9 10 11 12 13 14 15 16 17 18 19 20 21 22 23 24 25 26 27

000
ASUS41 KRLX 222310
RWRRLX
West Virginia Regional Weather Roundup
National Weather Service Charleston WV
700 PM EDT WED OCT 22 2014

Note: "fair" indicates few or no clouds below 12,000 feet with no
significant weather and/or obstructions to visibility.

WVZ003-230000-
Northern Panhandle of West Virginia

CITY           SKY/WX    TMP DP  RH WIND       PRES   REMARKS
WHEELING       CLOUDY    48  41  76 N10       30.18S
$$

WVZ009-230000-
Northwest West Virginia

CITY           SKY/WX    TMP DP  RH WIND       PRES   REMARKS
PARKERSBURG    CLOUDY    50  42  74 NW5       30.23S
$$

WVZ006-230000-
Western West Virginia

CITY           SKY/WX    TMP DP  RH WIND       PRES   REMARKS
HUNTINGTON     CLOUDY    50  43  77 N5        30.23R
$$

WVZ015-230000-
West Central West Virginia

CITY           SKY/WX    TMP DP  RH WIND       PRES   REMARKS
CHARLESTON     CLOUDY    50  44  80 NW6       30.20R
$$

WVZ022-031-230000-
North Central West Virginia

CITY           SKY/WX    TMP DP  RH WIND       PRES   REMARKS
CLARKSBURG     CLOUDY    48  42  80 NW7       30.17R
MORGANTOWN     CLOUDY    50  40  68 VRB3      30.17R
$$

WVZ025-035-042-045-230000-
Southern West Virginia

CITY           SKY/WX    TMP DP  RH WIND       PRES   REMARKS
BECKLEY        CLOUDY    43  40  89 NW9       30.16S
LOGAN          CLOUDY    46  45  93 NW5       30.20R
BLUEFIELD      CLOUDY    44  39  82 N6        30.16S
LEWISBURG      CLOUDY    49  39  69 N7        30.12S
$$

WVZ047-230000-
Northern Mountains of West Virginia

CITY           SKY/WX    TMP DP  RH WIND       PRES   REMARKS
ELKINS         LGT RAIN  45  44  97 NW9       30.15S FOG
$$

WVZ052-230000-
Eastern Panhandle of West Virginia

CITY           SKY/WX    TMP DP  RH WIND       PRES   REMARKS
MARTINSBURG    CLOUDY    54  41  61 NW15      30.01R
PETERSBURG     CLOUDY    50  40  68 N5        30.09S
$$



USA.gov is the U.S. government's official web portal to all federal, state and local government web resources and services.